星链-1616 (STARLINK-1616 )

导读 | 星芒AI

STARLINK-1616 是 SpaceX 星链计划中的一颗低轨通信卫星,属于星链第二代(Gen2)星座的一部分。该卫星于2023年发射,旨在为全球用户提供高速、低延迟的互联网服务。它搭载了先进通信设备,支持更广覆盖和更高带宽。星链项目通过大规模部署此类卫星,致力于改善偏远地区网络接入,推动全球互联网普及。STARLINK-1616 的运行进一步增强了星链系统的稳定性和服务能力。

基本信息
目录编号:
46148
目录名称:
STARLINK-1616
国际标识:
2020-057AH
轨道中心:
EARTH
卫星名称:
星链-1616
卫星全名:
星链-1616 (STARLINK-1616 )
卫星状态:
已陨落 最后检测时间 2025-05-10
发射日期:
2020-08-18 UTC
国别 :
美国 (US)
星等 :
--
轨道信息
数据来源 国际轨道数据
星历时间: 2025-05-10T11:10:37+0800
轨道信息已过期220天
半长轴: 6525.451km
偏心率: 0.0005025
轨道倾角: 53.011°
近地点辐角 274.365°
升交点赤经 165.089°
平近点角 196.263°
近地点: 144.036km
远地点: 150.596km
周期: 87.433分钟
每日圈数: 16.46975
详细信息
固有亮度:
5
最大亮度:
2.5
卫星平台:
Starlink V1.0
覆盖范围:
全球
运营商:
太空探索技术公司
运营商所在国:
美国
制造商(研发单位):
太空探索技术公司
制造商所在国:
美国
使用方式:
暂无
卫星简介
星链(Starlink)计划是由太空探索技术公司(SpaceX)提出的一个巨型低轨卫星互联网星座项目,计划在2019年至2024年间在太空搭建由约1.2万颗卫星组成的“星链”网络,其中1584颗将部署在地球上空550千米处的近地轨道,并从2020年开始工作。该卫星仍在工作。